Theta_e
317 315 316 321 320 321 322 323 320 319 319 313 314 316 316 318 318 319 320 321 324 325 320 323 331 328 327 327 329 327 327 331 327 325 328 334 335 337 338 336 338 339 339 338 336 335 336 337 338 333 325 321 320 318 320 326 330 331 333 333 333 333 334 333 334 335 333 329 325 329 331 330 331 331 331 332 333 334 334 333 332 331 331 332 331 331 330 329 330 331 330 330 329 329 329 329 327
319 318 318 320 320 322 323 323 320 316 315 311 314 317 316 318 318 320 323 322 323 321 319 326 330 326 324 324 325 326 330 330 328 331 334 334 336 337 337 337 339 339 339 338 337 338 337 337 336 332 325 323 321 319 320 324 327 329 332 333 333 333 334 334 333 334 334 332 330 331 330 330 331 331 331 332 333 334 333 332 332 331 333 334 333 332 331 329 330 330 330 329 329 329 329 328 327
321 321 320 322 321 322 323 322 318 313 312 310 313 317 317 318 320 321 321 320 322 320 322 327 327 325 323 324 324 325 330 329 329 334 335 335 337 337 337 338 339 338 338 338 338 339 338 337 336 333 328 324 321 320 320 323 325 327 331 332 333 333 334 334 333 334 335 334 332 331 330 330 331 331 331 331 332 333 333 332 332 332 333 333 332 332 331 330 330 330 329 329 329 329 329 329 329
322 322 322 323 323 323 324 322 319 314 311 310 312 317 318 319 320 319 318 321 321 321 323 326 327 325 323 325 324 323 329 331 333 335 335 337 338 337 337 338 338 338 338 338 338 339 339 336 336 334 331 326 323 321 320 321 322 324 329 332 333 332 334 334 333 334 335 335 333 332 330 329 330 330 330 331 331 331 331 331 330 330 331 331 330 331 330 329 329 329 329 329 329 329 329 329 329
321 320 320 324 326 323 323 321 319 315 312 312 312 316 318 319 319 318 320 322 320 319 322 326 328 325 325 327 325 324 330 333 334 336 336 337 338 337 337 338 338 337 337 338 338 339 339 336 335 335 332 328 324 321 321 320 319 321 327 330 332 332 334 334 334 334 334 334 332 332 330 329 329 329 330 330 330 330 330 330 330 331 331 330 329 330 330 330 329 329 329 329 329 329 329 329 329
319 318 319 321 322 320 321 317 315 315 314 316 315 316 318 317 319 320 321 321 319 317 318 323 326 326 328 328 327 328 331 333 335 335 336 337 337 337 337 338 337 337 337 338 339 339 338 336 335 336 334 330 325 323 322 320 317 319 324 329 331 332 333 333 334 334 335 333 331 331 331 330 328 328 329 329 329 331 331 331 331 332 332 331 330 331 331 331 330 329 328 329 329 329 329 329 328
320 320 321 321 319 319 321 316 314 316 315 315 315 317 317 316 319 321 321 321 318 315 314 319 324 324 326 327 330 331 331 334 335 336 336 337 337 337 337 337 337 337 337 338 339 339 338 336 335 336 335 330 328 326 322 320 317 317 322 327 330 332 333 332 333 334 334 332 330 329 329 329 328 328 328 329 329 330 331 332 332 331 332 331 330 331 331 331 331 330 329 329 329 328 328 328 328
319 321 323 323 321 320 321 317 316 317 314 312 313 315 316 317 319 322 322 320 318 316 316 320 322 322 323 324 331 333 331 333 334 335 336 337 336 337 337 337 337 337 337 338 339 340 337 336 336 337 335 332 329 327 323 321 319 316 319 326 330 331 333 332 332 333 333 332 330 328 327 328 328 327 328 329 329 329 331 331 331 331 330 330 330 330 330 330 330 330 329 329 328 328 327 328 327
317 319 321 322 320 319 318 317 317 316 314 314 313 314 315 316 319 322 321 319 316 317 320 321 319 320 323 324 330 332 332 334 333 335 336 337 336 337 337 337 337 337 337 337 339 339 337 337 337 337 336 333 331 327 324 322 320 317 318 326 330 330 331 332 332 333 333 332 331 328 325 327 328 327 328 328 329 329 329 330 329 329 329 330 330 330 330 330 329 329 329 328 328 328 328 328 328
319 319 321 322 319 316 314 315 316 315 315 315 314 315 315 314 318 322 321 318 315 318 320 318 317 318 323 326 329 332 334 334 334 336 336 337 336 337 337 336 338 337 337 337 338 339 338 337 337 337 336 335 333 329 325 323 322 319 317 322 326 327 330 331 331 332 332 332 331 329 326 327 328 326 328 328 328 328 328 328 328 328 329 330 330 330 330 329 329 329 329 328 328 328 328 328 327
320 319 321 321 316 313 312 314 316 316 316 315 315 314 314 314 317 320 318 316 315 318 319 317 318 320 323 325 328 330 332 334 335 337 336 337 336 336 336 336 337 337 337 337 338 338 338 337 337 338 336 336 334 332 328 325 323 321 318 318 320 322 327 330 331 330 331 332 331 330 328 327 327 326 327 327 327 327 328 328 328 328 329 329 329 329 329 328 328 328 328 327 327 327 327 327 327
321 321 321 319 316 314 314 315 316 318 318 317 317 314 313 314 317 319 317 316 316 318 319 318 320 322 322 323 326 328 331 335 336 337 337 337 336 335 336 336 336 336 337 337 338 338 338 338 338 338 337 336 335 334 331 327 325 323 321 317 317 320 324 327 330 330 330 330 330 331 330 328 327 327 326 327 327 327 327 327 327 328 328 329 328 328 328 327 328 328 328 327 327 327 327 327 327
322 323 322 318 317 316 316 316 317 319 319 318 317 314 313 315 318 318 317 317 316 319 319 318 320 321 321 322 325 328 333 337 336 337 337 337 336 335 336 336 336 336 337 337 337 337 338 337 338 338 337 336 335 335 333 330 327 325 324 320 316 318 322 324 326 328 329 329 329 329 329 328 327 327 326 326 327 326 326 326 327 328 328 329 328 328 328 327 327 327 327 327 327 327 327 327 327
322 322 321 318 316 316 316 316 317 317 316 318 316 312 312 315 316 315 316 317 317 318 314 315 320 320 319 320 323 327 334 337 336 337 337 337 336 335 335 336 336 336 337 337 337 337 337 337 338 338 337 336 335 335 334 332 329 327 325 323 318 317 320 322 322 324 327 329 328 326 327 327 326 326 326 326 327 326 325 326 327 328 328 329 328 327 327 326 326 326 326 327 327 327 327 327 327
320 319 321 319 315 315 316 316 318 316 315 318 314 311 314 312 311 313 315 317 316 313 312 315 317 318 318 319 321 327 336 336 336 337 337 337 336 335 335 336 336 336 337 337 337 337 337 337 337 338 337 337 336 336 335 333 331 329 326 325 322 318 318 318 319 320 322 326 326 325 324 324 324 326 327 326 326 326 324 325 326 327 328 328 326 326 326 325 325 325 326 326 326 326 326 326 326
318 319 321 319 316 315 316 316 318 316 316 316 311 311 316 312 309 312 312 313 314 311 314 317 316 318 318 318 323 328 337 336 335 337 336 337 336 336 335 335 336 336 337 336 337 337 337 337 337 338 337 337 337 336 336 334 333 330 328 326 325 323 319 317 317 318 319 321 323 323 322 322 323 325 327 326 326 325 324 325 327 328 328 326 325 326 325 324 325 325 325 325 325 325 325 325 325
317 320 320 317 316 316 316 317 317 315 316 314 309 311 317 314 309 310 309 310 314 313 314 316 316 319 319 320 323 328 335 335 335 336 336 338 337 336 335 335 335 335 336 336 336 336 337 337 336 337 337 337 337 336 336 336 334 332 330 327 326 325 323 320 317 317 318 319 320 321 322 324 324 325 326 326 326 325 324 325 326 327 326 325 324 325 325 324 324 324 324 324 324 324 324 324 325
319 321 319 316 317 317 317 317 316 315 317 314 311 313 317 316 312 310 311 312 314 314 314 315 316 319 322 323 323 328 333 335 336 337 337 338 338 337 336 335 335 335 336 336 336 336 337 337 336 337 337 337 337 337 336 336 334 333 332 330 328 326 325 322 319 318 317 318 319 319 322 324 324 325 325 325 326 325 324 324 325 326 326 325 324 324 325 323 322 322 322 323 323 322 322 324 324
319 320 318 317 319 316 314 316 314 314 316 314 311 312 315 315 313 312 313 315 314 314 315 315 316 319 323 323 325 329 332 335 337 337 338 338 338 337 337 336 336 335 336 336 336 336 336 336 337 336 336 337 337 337 336 336 335 334 334 333 331 328 326 323 321 319 317 318 317 318 323 323 322 324 321 321 325 325 324 323 323 324 325 324 323 324 324 322 320 320 321 321 321 321 322 323 324
317 318 318 319 319 315 311 313 313 311 312 314 312 310 312 312 312 312 314 315 313 314 316 315 316 318 322 325 327 330 332 336 337 337 338 337 338 337 337 337 336 336 335 336 336 336 336 336 336 336 336 336 336 336 336 336 336 335 334 334 333 331 328 326 323 321 319 319 317 319 322 318 318 320 316 317 322 324 324 323 322 322 323 323 323 323 322 321 319 320 320 320 320 320 321 322 323
317 317 318 318 316 315 311 310 310 308 310 314 312 311 312 311 310 312 314 315 314 315 315 315 316 315 322 326 328 332 333 335 336 337 338 337 338 337 337 337 336 336 336 336 336 336 336 336 336 336 336 336 336 335 335 335 335 335 334 333 333 332 331 329 326 323 321 320 318 320 320 315 318 319 316 319 323 324 324 324 323 322 323 323 323 323 321 320 319 320 320 319 319 319 320 321 322
317 314 314 314 313 315 311 307 308 307 309 312 312 312 313 311 311 313 314 315 315 314 313 314 314 315 323 326 329 332 332 335 335 336 337 337 337 337 336 336 336 336 336 336 336 336 336 337 337 336 336 335 335 335 334 335 335 335 335 334 334 333 332 331 329 326 323 322 320 320 319 316 318 319 318 319 322 323 323 324 324 323 323 322 323 322 319 319 320 319 319 318 318 319 319 319 321
317 313 310 310 310 313 309 307 308 307 310 312 312 313 311 311 312 311 312 315 314 309 309 310 309 316 326 328 329 331 332 334 334 335 336 336 336 336 336 335 336 336 336 336 336 337 337 337 337 336 336 335 335 335 334 334 334 334 334 334 334 333 332 331 330 329 326 324 322 321 320 318 319 320 318 317 318 321 322 323 323 322 322 321 321 320 318 319 320 319 319 318 318 318 319 319 319
316 314 311 309 309 310 307 306 306 306 310 311 310 311 311 313 313 308 310 314 312 307 309 310 310 318 327 327 329 331 332 334 334 335 335 335 336 335 335 334 335 335 336 336 336 336 337 336 336 337 337 336 335 335 334 334 334 334 333 333 333 333 333 332 331 330 328 326 324 322 321 320 320 321 320 318 318 319 319 318 320 320 320 319 317 317 317 318 319 319 319 318 318 318 318 320 320
315 314 310 309 308 308 305 304 305 306 308 307 308 311 311 310 310 308 311 313 310 307 311 315 317 321 325 326 329 332 332 333 334 333 333 334 335 334 334 334 334 335 335 335 336 335 336 335 335 336 337 336 336 335 335 335 334 333 333 333 333 332 332 332 331 330 329 327 326 323 321 321 322 321 320 320 320 319 316 313 315 316 316 315 314 315 317 318 318 318 318 318 318 318 318 320 320
314 312 310 309 309 307 306 306 306 307 307 307 310 312 309 307 307 311 313 310 307 307 312 319 321 321 324 326 329 332 332 333 333 332 333 333 333 333 333 334 334 334 334 334 335 335 336 335 335 335 335 336 336 336 335 335 334 333 333 333 333 333 332 331 331 330 329 328 327 326 323 321 322 322 321 321 321 321 316 313 314 313 312 313 313 314 316 317 318 318 318 319 318 318 318 319 320
310 310 310 309 309 307 307 308 307 308 308 308 311 312 309 307 308 313 312 306 306 309 313 318 321 321 323 326 328 331 331 332 333 332 332 332 332 332 333 334 334 334 334 334 334 335 335 335 335 334 335 335 335 336 335 335 334 333 334 333 333 334 334 332 331 330 330 329 328 327 325 322 322 322 322 321 322 322 319 314 314 312 311 310 311 313 314 316 317 318 318 318 318 318 317 318 320
310 311 311 309 309 309 308 309 308 309 309 309 311 311 310 308 310 313 310 304 306 310 313 319 322 321 323 326 326 329 330 331 331 330 331 331 331 332 333 334 334 334 334 334 334 334 335 334 334 334 334 334 334 335 335 335 334 333 333 334 333 333 333 333 332 330 329 329 328 328 327 324 323 322 322 321 321 323 321 317 315 314 311 309 309 310 312 315 316 317 317 317 318 317 316 317 319
310 311 313 310 310 312 309 309 308 310 311 308 310 311 311 311 312 312 307 304 307 310 312 317 320 319 321 324 324 327 329 329 329 329 330 330 331 332 333 334 334 335 334 335 335 334 334 334 334 334 334 334 333 333 334 334 335 334 333 333 333 333 332 332 332 331 330 329 329 328 328 327 325 322 322 322 321 323 322 320 318 316 314 311 309 309 310 313 314 315 316 317 317 317 316 315 317
310 311 313 312 312 312 309 309 308 310 310 306 308 310 312 313 312 309 306 305 307 310 312 314 317 318 318 320 322 324 327 328 328 329 330 330 331 332 332 334 334 335 334 334 334 334 334 334 334 333 333 334 333 333 333 333 334 334 334 333 333 333 333 332 331 331 330 330 329 328 328 328 328 324 323 322 322 323 323 322 321 319 317 314 310 309 309 311 312 313 314 315 315 316 316 315 316
311 311 312 313 312 311 310 309 310 311 309 306 308 309 312 312 310 307 306 306 308 311 312 312 312 314 315 317 318 321 324 327 327 328 330 330 331 331 332 333 333 334 334 334 334 334 333 333 333 333 333 333 333 333 332 332 332 333 334 334 334 334 333 333 331 331 330 330 330 329 329 328 328 327 326 324 323 323 323 324 324 322 321 318 313 310 310 312 312 312 313 313 313 314 314 314 316
310 310 313 313 311 311 311 308 309 312 310 307 309 310 312 313 310 307 305 306 308 311 312 311 310 310 311 313 314 317 320 323 325 326 328 329 330 330 330 331 332 332 332 333 333 333 333 333 333 333 333 333 332 332 332 331 331 331 332 333 334 333 333 333 332 332 332 331 330 330 329 329 329 329 328 327 326 324 324 325 325 324 323 321 317 313 312 313 313 313 314 313 313 313 313 314 315
310 311 314 314 311 311 311 309 307 310 311 310 309 310 311 314 311 308 305 306 308 310 311 311 311 311 310 310 311 312 314 316 320 322 324 326 327 327 328 329 330 330 330 331 332 332 332 333 333 332 332 333 333 333 332 332 332 331 330 331 332 331 331 331 331 332 332 332 332 331 330 329 329 330 330 329 329 328 326 327 327 327 326 323 320 318 315 314 313 314 314 314 313 313 313 313 314
311 312 314 312 311 309 309 310 308 308 310 312 311 310 311 313 312 309 307 306 308 310 312 312 312 312 311 311 310 310 311 312 315 317 318 321 323 324 325 326 327 328 329 329 331 331 332 332 332 332 331 332 332 332 332 332 332 331 330 331 331 331 331 330 329 331 332 331 332 332 331 330 329 329 330 329 329 329 329 328 327 328 327 325 322 321 318 315 314 314 314 314 313 313 312 313 313
312 312 312 310 310 309 309 311 309 308 311 312 312 311 311 312 312 311 310 307 308 311 312 312 312 312 312 312 311 310 310 311 313 314 314 314 317 319 322 323 325 325 326 327 328 330 331 331 331 331 331 331 331 332 332 332 331 331 330 330 330 330 330 329 329 330 331 331 330 330 331 331 330 329 330 330 329 329 328 328 327 327 327 325 322 321 318 316 315 314 313 313 313 312 312 312 312
312 313 312 311 310 309 310 310 307 308 311 312 312 312 312 313 312 313 312 308 309 311 311 311 311 312 311 311 312 312 312 313 313 312 311 310 311 312 315 318 320 323 324 325 326 327 329 330 330 330 330 330 330 330 331 332 331 331 331 331 331 331 331 331 331 331 332 332 331 330 330 331 331 331 330 329 329 329 329 328 327 326 326 325 322 320 320 319 319 317 314 313 313 312 311 311 311
313 312 312 313 312 309 309 310 307 306 311 313 313 313 312 312 313 313 313 310 310 311 311 313 313 313 313 313 313 313 314 314 312 309 309 308 308 309 309 310 313 316 320 322 324 325 326 328 329 329 329 329 329 329 330 330 330 330 330 331 333 333 333 333 333 333 333 333 332 332 331 331 332 331 328 327 327 328 328 329 328 326 325 325 324 321 320 320 320 318 315 313 312 311 311 310 310
312 311 311 312 312 311 310 310 308 305 310 313 311 311 312 313 313 313 313 311 311 312 312 314 314 314 314 314 315 315 315 313 311 309 309 308 307 307 307 308 308 310 313 317 320 323 324 326 327 327 328 328 328 328 329 329 329 329 330 330 331 331 331 331 333 334 334 334 333 332 332 332 332 331 329 327 327 327 328 329 329 328 325 324 324 322 320 319 319 318 314 312 311 311 310 309 309
312 312 311 311 311 311 309 309 308 306 310 313 311 311 313 314 314 314 313 312 312 313 313 314 314 314 314 314 314 314 314 313 311 310 310 308 306 306 306 307 308 308 310 311 314 319 323 324 325 326 327 327 327 328 328 328 328 329 329 329 329 329 329 329 329 331 332 332 331 329 329 329 331 331 331 329 328 328 329 329 329 328 326 325 324 322 320 318 317 317 315 313 311 310 309 309 309
313 313 311 311 313 312 310 310 309 306 307 310 311 312 314 314 313 313 312 310 310 310 308 309 310 311 313 313 314 312 311 312 312 311 310 309 307 306 306 306 307 307 307 308 309 314 318 321 322 324 325 325 326 326 327 327 328 327 327 328 329 329 329 329 329 328 328 329 329 328 327 328 329 331 331 330 330 330 330 329 329 329 327 326 324 321 320 319 318 318 316 314 312 310 309 308 308
314 316 313 313 313 313 311 310 309 307 307 307 310 311 312 314 313 313 311 306 307 306 306 307 308 308 309 310 310 309 309 310 310 311 311 310 308 307 306 305 305 305 306 307 307 309 312 314 317 320 322 323 324 324 325 326 326 326 326 326 327 327 328 329 329 329 329 329 329 330 330 330 330 331 331 330 330 331 331 329 327 329 328 326 323 321 320 320 320 320 317 315 313 312 309 307 306
313 315 315 313 312 313 312 311 311 311 310 308 309 308 309 314 315 314 312 309 309 308 308 310 309 309 308 308 308 308 308 308 307 308 309 309 307 306 306 305 304 305 305 305 306 306 307 308 311 314 317 320 321 322 323 324 325 325 325 325 325 325 326 326 326 327 327 327 328 329 330 331 330 330 329 328 328 329 330 328 326 328 328 325 323 322 321 320 320 319 317 315 315 313 311 308 307
311 313 313 311 313 316 314 314 313 311 310 308 307 309 309 312 315 315 312 312 313 312 312 312 310 310 309 309 309 309 309 308 307 307 307 306 306 306 306 305 304 304 304 304 305 306 306 307 308 309 312 315 318 320 322 323 323 324 324 324 324 324 324 324 324 325 325 325 325 326 327 328 327 327 327 327 326 327 328 328 326 328 328 325 324 323 322 321 321 320 318 316 316 314 311 308 307
312 313 312 311 315 319 317 315 313 311 311 310 310 312 310 309 313 314 310 311 313 313 312 312 311 311 310 310 310 310 311 310 309 309 308 306 305 305 306 306 305 305 305 304 305 306 306 307 308 308 310 313 315 318 321 322 322 323 323 324 324 323 324 324 324 324 325 325 325 325 325 325 326 327 328 327 326 326 327 327 328 327 326 325 325 323 322 322 322 321 319 316 314 312 310 308 308
313 310 310 312 315 318 317 315 312 310 310 311 311 312 309 308 315 314 309 310 313 313 313 312 312 312 311 311 310 310 310 309 308 308 308 308 307 307 307 308 308 308 307 306 305 306 306 308 308 309 310 312 314 317 320 321 321 322 323 323 323 323 323 324 324 324 324 324 324 324 324 324 325 326 327 328 327 327 327 327 328 327 326 326 325 323 322 322 320 320 320 317 314 313 311 309 309
310 307 309 312 314 315 315 313 311 309 310 311 310 309 307 308 317 316 309 310 313 313 312 311 312 313 312 311 310 309 308 309 309 308 309 309 309 308 308 309 310 310 310 308 307 307 307 308 309 310 311 312 315 317 319 320 321 322 322 323 323 323 323 323 323 323 323 323 323 323 323 323 323 324 324 325 326 326 327 327 327 326 326 327 327 325 323 322 321 320 320 319 317 315 312 310 309
308 311 313 313 313 313 312 310 309 309 310 310 307 306 308 307 314 317 311 310 312 312 312 312 312 313 312 311 310 308 307 308 309 309 310 309 308 308 309 310 311 311 311 310 309 310 310 310 310 311 313 313 315 317 318 319 320 321 322 322 323 323 323 323 322 322 321 321 321 322 322 322 322 323 323 323 324 324 325 325 326 326 326 327 327 326 324 324 322 321 320 318 316 315 312 311 311
309 315 314 313 313 312 311 309 309 310 311 308 304 304 307 307 310 313 310 310 310 310 312 312 312 312 313 313 311 308 307 308 309 310 311 311 310 311 311 311 311 311 312 312 312 312 312 312 312 313 314 315 316 318 318 319 320 320 321 321 322 322 322 322 321 321 321 321 321 321 321 321 321 322 322 323 323 324 324 325 325 325 326 326 325 326 325 324 323 321 320 318 316 314 313 312 311
311 314 312 312 312 312 312 311 310 311 310 306 304 304 307 308 310 310 310 311 309 309 311 311 311 311 313 315 314 311 309 310 311 311 312 313 313 312 311 311 311 312 313 313 313 314 314 314 314 315 316 317 317 318 319 320 320 320 321 321 321 321 321 321 321 321 320 320 320 320 320 319 320 321 322 323 323 324 324 324 324 324 324 325 325 325 325 323 322 320 319 318 317 315 314 313 312
311 314 313 311 312 312 312 311 308 309 309 305 303 305 308 310 310 311 311 311 309 308 309 310 310 310 311 312 312 312 309 309 311 312 313 313 312 312 311 311 311 312 312 313 314 314 314 315 315 316 316 316 317 318 319 319 320 320 321 321 321 320 320 320 320 319 320 320 319 319 319 319 320 320 321 323 323 323 323 323 323 323 323 323 323 323 322 321 320 320 319 318 317 316 316 314 313
312 315 314 311 312 312 312 310 309 310 309 305 303 306 310 310 310 311 310 309 309 306 306 307 307 307 307 308 310 310 308 307 310 311 311 311 310 310 310 310 311 312 312 313 313 313 314 314 314 315 315 315 315 316 317 317 318 318 319 319 320 320 320 319 319 319 319 319 319 319 319 319 319 319 320 321 322 321 321 321 321 321 321 321 321 320 320 319 318 318 318 318 317 317 315 315 314
310 310 311 311 312 311 309 307 308 308 307 308 307 309 311 311 310 311 308 307 308 306 306 307 308 307 307 312 314 312 309 308 310 310 309 309 308 307 308 309 310 311 312 312 312 312 312 312 312 313 313 313 313 313 313 314 314 315 315 316 316 317 318 317 318 318 317 318 318 317 318 318 318 319 319 319 319 319 319 319 319 319 318 318 318 317 317 316 315 315 316 316 316 316 315 314 314
310 309 310 310 312 314 309 304 304 305 308 309 309 310 311 309 309 312 310 309 309 308 307 308 310 311 312 317 319 314 311 310 310 309 309 309 309 308 308 309 309 310 310 311 311 311 311 311 311 311 311 312 312 312 312 312 312 312 312 312 313 313 313 314 314 315 315 315 315 315 315 315 316 317 317 317 317 317 317 317 316 316 316 315 315 315 314 314 313 313 313 314 314 314 314 314 313
310 311 311 308 309 312 310 308 307 307 309 309 308 309 309 307 308 312 311 309 309 309 308 308 310 313 314 317 316 312 311 310 309 309 309 310 310 309 308 308 309 309 309 310 310 311 311 311 311 311 311 311 311 311 311 311 311 311 311 311 311 311 311 311 312 312 312 312 313 313 313 313 314 315 315 315 315 315 315 315 315 314 314 314 313 313 312 312 312 312 312 312 312 312 312 312 312
310 311 310 309 310 310 308 309 310 309 309 310 308 306 306 307 309 311 310 310 311 310 309 309 309 311 314 314 312 312 311 311 311 310 310 311 311 310 308 308 309 309 310 310 310 311 311 311 311 311 311 311 311 311 311 311 311 311 311 311 311 311 311 311 311 311 311 311 311 312 312 312 312 313 313 313 313 313 313 313 313 313 313 313 312 312 311 310 310 310 310 310 310 310 310 310 309
307 307 308 310 311 310 309 309 309 309 309 309 308 305 307 310 310 310 311 310 310 309 310 311 310 311 313 312 311 313 313 313 312 311 311 312 311 309 307 308 308 308 309 309 309 310 310 310 310 310 310 310 310 310 310 310 310 310 310 310 310 310 310 310 310 310 310 310 311 311 311 311 311 311 312 312 312 312 312 312 312 312 312 311 311 311 310 309 310 310 309 309 309 308 308 308 308
307 307 308 310 309 308 309 308 307 309 308 308 308 307 308 310 309 309 309 308 308 309 309 312 314 313 312 310 311 313 313 312 312 311 311 311 309 307 306 307 307 307 308 308 309 309 310 310 311 311 311 311 310 310 309 309 309 309 309 309 309 309 309 309 309 310 310 310 310 310 310 310 310 310 310 311 311 311 311 311 311 311 311 310 310 310 309 308 309 309 309 308 308 308 308 307 306
311 309 309 312 311 309 311 310 307 307 307 307 307 307 309 312 309 307 308 307 308 307 307 312 315 313 311 310 311 312 312 312 311 310 310 310 309 307 306 306 307 307 308 308 309 309 310 311 311 311 311 311 310 310 310 309 309 309 309 309 309 309 309 309 309 309 309 309 309 308 308 309 308 309 309 309 309 309 309 310 309 309 309 308 308 308 308 308 308 308 308 308 308 308 307 307 306
Wind_Speed
2 1 4 5 3 2 1 1 1 1 1 1 2 1 4 2 2 4 6 5 4 5 2 2 8 7 2 1 1 3 4 2 3 2 2 4 11 16 11 14 16 15 16 15 16 15 13 13 12 11 9 10 10 9 11 13 14 13 12 12 12 12 11 10 10 13 16 18 20 20 18 17 17 18 18 18 18 18 19 19 20 19 18 19 18 17 18 18 18 19 19 19 19 19 19 18 18
1 1 4 4 2 3 0 1 2 2 2 2 2 1 4 3 3 6 9 6 3 5 3 4 8 5 2 3 1 1 2 5 5 3 4 8 15 13 11 16 17 16 16 15 16 14 13 12 12 11 10 10 9 9 11 13 14 14 14 13 12 12 11 10 10 14 17 18 19 19 18 17 17 17 17 17 17 18 18 18 19 18 17 17 17 17 18 18 18 19 19 19 19 19 19 19 19
0 2 4 2 0 1 1 1 2 2 3 2 3 2 4 5 6 6 6 3 5 7 5 5 6 3 0 2 1 1 2 4 2 3 5 12 14 12 15 17 16 16 15 15 15 14 13 13 12 11 10 9 8 9 11 12 13 14 14 12 11 11 10 9 10 13 17 18 17 18 17 17 17 16 16 17 17 17 17 17 17 17 17 17 17 17 17 17 18 18 18 18 18 18 18 18 18
0 3 5 3 1 1 1 1 1 2 3 1 2 5 6 6 7 6 6 5 6 6 6 7 5 2 3 2 1 1 2 4 3 4 7 12 11 15 19 18 17 15 14 14 15 14 14 14 13 11 10 9 8 9 11 12 12 14 14 13 12 12 10 10 10 12 16 17 16 17 17 16 15 16 16 16 16 16 17 17 16 16 16 16 15 16 17 17 18 18 18 18 18 18 18 17 18
1 1 6 6 3 1 0 1 0 3 1 1 1 6 8 6 7 8 7 7 6 3 4 6 3 2 2 1 2 1 3 5 5 5 9 12 11 18 20 19 17 15 14 14 15 14 13 14 13 11 10 9 8 9 11 11 11 14 14 14 14 12 11 10 10 11 15 16 16 16 16 15 15 15 15 15 16 16 16 16 15 15 15 16 16 17 17 17 17 17 17 17 17 17 17 17 17
3 3 1 1 0 1 1 1 2 2 1 1 1 5 9 6 8 10 9 7 3 1 2 4 2 3 2 2 1 1 2 3 6 8 10 12 14 19 20 20 17 15 15 14 15 14 14 15 13 11 10 9 8 9 10 10 11 13 14 15 14 12 10 8 10 11 13 14 14 15 15 15 15 15 15 15 15 15 15 15 15 15 15 16 17 17 16 16 16 16 16 16 16 16 16 16 16
2 0 2 3 2 1 2 1 1 2 2 2 3 3 8 8 8 12 11 7 3 1 1 2 1 3 2 2 2 2 2 1 5 8 10 13 16 19 19 19 17 17 16 15 14 14 15 15 14 12 10 9 8 9 10 10 11 12 13 15 14 12 10 7 9 11 11 11 12 14 14 15 15 14 14 14 15 15 15 14 14 15 15 16 16 15 15 16 15 15 15 15 15 15 15 15 16
2 1 1 1 2 1 1 1 0 0 2 1 2 1 4 8 9 11 11 6 4 4 3 3 3 3 2 0 2 3 1 2 4 9 12 13 17 18 18 18 17 17 16 15 14 14 15 16 14 12 11 10 9 9 10 10 10 10 12 14 12 12 11 8 8 11 10 10 11 13 14 15 14 13 13 14 14 15 14 14 14 14 14 15 15 15 15 15 15 15 15 15 15 15 15 15 16
1 1 2 2 1 1 1 1 1 0 1 0 1 1 0 4 7 10 11 4 2 5 4 5 3 2 4 3 1 4 4 3 4 11 14 14 17 18 17 17 17 17 16 15 14 14 15 16 15 13 12 10 9 9 9 10 10 10 11 12 11 12 13 10 9 10 10 10 12 13 15 15 14 13 12 13 14 14 14 13 13 13 14 14 14 15 15 15 14 14 13 14 14 14 15 15 15
1 1 1 2 1 2 2 2 2 1 1 0 1 1 1 5 5 7 10 5 3 5 5 3 2 2 5 5 3 3 4 4 6 13 14 15 17 17 16 16 16 16 16 15 14 14 15 16 15 13 12 11 10 9 9 9 9 9 10 10 11 13 14 12 10 9 9 11 12 12 14 15 14 13 12 13 13 13 13 13 13 13 14 14 14 14 14 13 13 13 12 12 13 13 13 13 13
1 1 0 2 2 3 3 2 3 1 1 0 1 1 2 6 5 5 6 4 3 3 5 3 3 5 5 3 2 4 4 6 9 14 15 16 17 16 16 15 15 15 15 14 14 13 14 15 15 14 13 11 10 9 9 9 9 9 8 9 11 13 13 13 10 8 9 10 10 11 13 14 13 13 12 12 12 13 13 13 13 13 13 13 13 13 12 12 13 12 12 12 12 12 12 13 14
2 1 1 3 2 1 1 2 3 2 2 2 3 4 3 6 6 7 6 4 4 4 6 6 2 5 5 4 3 5 6 7 10 14 16 16 16 15 14 14 15 15 14 14 13 13 13 14 15 14 14 12 11 9 9 8 8 8 8 8 10 11 11 12 11 9 9 8 9 12 13 13 13 12 12 11 10 11 12 12 12 12 12 12 12 12 12 12 12 13 12 12 12 12 12 13 15
2 1 3 2 0 0 1 1 2 1 3 3 4 5 5 8 6 6 6 4 6 5 5 5 2 2 3 4 3 5 7 9 12 14 15 15 15 14 13 13 14 14 14 14 13 13 13 14 14 14 14 12 11 10 9 8 8 8 8 8 9 10 10 11 12 10 10 9 8 9 11 11 13 13 12 11 9 10 12 12 11 11 12 11 11 11 12 12 12 13 12 12 12 11 12 13 14
1 1 1 2 1 0 1 1 3 3 4 4 4 6 6 5 2 2 5 5 6 3 2 2 1 2 2 4 3 5 9 12 13 13 14 14 14 13 13 12 13 13 13 13 13 13 13 13 13 13 13 12 11 10 9 9 8 7 7 7 8 9 9 9 10 10 11 10 8 7 8 8 12 14 13 11 9 10 13 13 12 11 11 10 10 11 11 12 12 12 12 12 11 11 12 12 12
1 1 1 3 2 1 2 0 2 4 3 6 4 6 6 2 1 2 4 4 3 2 2 1 2 2 2 4 4 6 12 15 14 13 14 14 13 13 12 11 12 12 12 13 13 13 13 13 13 14 13 12 12 11 10 9 9 8 7 7 7 7 8 8 8 9 10 10 8 6 6 7 11 14 13 12 10 10 10 11 12 11 10 10 10 11 10 11 11 11 11 11 11 11 11 11 10
1 2 1 2 2 2 3 1 2 3 3 6 3 4 7 3 0 3 0 2 2 2 1 2 1 2 2 1 4 7 14 16 14 15 15 14 14 13 12 11 11 12 12 13 13 13 14 14 14 14 14 13 12 11 10 10 10 9 8 7 7 6 6 7 6 7 8 8 7 5 5 6 9 13 13 12 10 9 9 10 12 11 9 9 10 10 10 10 10 10 10 10 10 10 9 9 9
1 2 2 2 2 2 4 5 4 2 4 6 4 6 9 6 1 1 1 2 1 3 2 0 1 2 3 3 5 9 14 15 16 16 15 16 15 15 13 12 12 12 13 13 14 14 14 15 15 14 14 14 13 12 11 10 11 10 9 8 8 7 6 6 6 6 6 7 6 4 5 5 8 11 11 11 11 10 9 10 12 11 8 9 9 9 9 9 10 9 9 8 8 7 7 8 8
2 2 3 2 2 2 4 7 4 1 5 8 7 9 9 7 5 2 3 3 1 3 3 1 1 2 0 2 5 12 14 15 17 17 18 18 16 16 15 13 14 14 14 14 14 13 14 15 15 15 14 15 14 13 12 12 12 11 10 10 9 8 7 7 7 7 6 7 6 6 6 6 7 9 9 11 10 9 10 11 11 10 9 8 9 9 9 9 9 10 9 7 6 6 7 7 7
1 1 2 3 2 1 1 5 4 1 4 10 8 6 5 4 6 4 4 5 3 4 5 3 4 5 5 2 6 14 14 16 20 19 20 20 19 18 17 16 15 16 16 16 15 14 15 15 15 15 15 15 14 13 13 12 13 12 11 10 10 10 9 8 8 8 8 8 7 7 7 7 7 8 10 11 11 10 11 11 10 10 10 9 9 9 8 8 9 10 8 6 6 6 6 7 6
1 2 4 3 2 1 1 2 4 1 2 9 9 4 3 1 3 4 3 3 4 7 6 5 7 8 8 5 9 15 14 17 20 19 21 21 20 19 19 18 17 17 17 16 16 16 16 15 15 16 16 16 15 14 14 13 13 13 12 11 9 10 10 9 10 9 9 9 8 8 8 8 8 8 9 11 12 10 10 10 10 9 9 10 9 8 7 9 10 9 8 6 6 6 7 7 6
2 2 2 3 2 2 2 1 2 2 1 6 9 6 5 3 2 4 4 4 5 8 7 7 9 9 10 9 12 17 16 18 20 20 21 21 21 20 19 19 18 17 16 15 16 16 16 15 15 16 16 16 16 15 15 14 14 14 13 12 10 9 9 9 10 11 10 9 9 9 9 8 8 8 9 11 11 10 9 9 8 8 7 10 9 5 5 8 9 9 8 7 7 7 8 8 7
3 0 3 3 1 2 3 1 2 2 1 5 9 8 6 6 3 4 6 7 3 1 2 4 5 2 8 11 13 18 19 20 21 22 22 22 22 21 19 18 17 16 16 16 16 17 16 15 15 16 17 16 16 16 15 15 15 15 13 13 13 10 10 9 10 11 12 11 11 10 9 9 9 10 11 12 12 10 10 10 9 9 7 8 8 5 5 8 10 10 9 8 7 7 8 9 9
2 2 1 2 1 0 2 2 2 2 4 8 8 6 6 7 4 1 6 9 1 4 3 4 4 2 6 12 14 16 18 20 22 24 24 24 23 22 21 19 18 18 17 17 17 17 16 17 16 16 17 17 17 16 16 15 15 15 15 16 14 11 10 10 10 10 11 14 13 11 11 11 11 11 12 12 12 11 11 11 11 10 8 9 9 7 7 9 11 11 10 8 7 6 7 8 9
1 3 3 2 2 2 1 1 2 2 3 5 4 5 6 7 5 3 6 9 1 3 3 4 2 2 6 11 13 16 18 21 22 24 23 22 22 21 20 19 19 18 18 18 18 17 17 18 20 19 18 17 17 17 16 16 15 15 16 19 17 14 12 10 10 10 11 14 14 14 13 12 12 12 12 12 12 12 13 13 13 12 11 11 11 9 9 10 11 11 10 9 7 7 7 8 9
1 4 5 3 2 2 2 1 3 1 2 3 4 5 3 3 3 1 6 6 1 1 2 3 3 3 5 8 12 14 16 18 18 19 20 19 18 18 19 19 18 19 19 19 19 18 18 19 21 21 20 18 17 17 18 17 16 15 16 19 20 19 15 11 11 11 10 12 14 16 15 14 13 13 13 13 12 12 14 15 14 14 13 13 12 11 10 11 11 11 11 10 9 8 8 9 10
2 5 7 5 3 3 2 2 2 2 2 2 6 6 2 2 1 4 4 1 2 2 1 2 3 4 6 7 10 12 14 16 17 17 19 18 16 18 20 20 19 20 20 20 20 19 18 19 22 22 22 21 18 16 16 18 18 17 16 18 19 21 18 12 11 11 10 10 12 16 17 16 15 14 14 14 12 12 14 15 15 15 14 13 12 12 12 12 12 12 12 11 10 9 10 10 11
6 9 8 7 5 2 1 3 2 1 3 1 5 6 2 2 2 4 3 4 3 2 2 1 3 6 6 7 8 10 11 14 16 16 17 18 18 20 20 21 21 20 19 20 21 20 19 20 22 22 22 23 23 19 16 16 18 19 18 17 18 21 19 16 14 12 13 12 11 13 16 18 17 15 16 15 13 12 13 16 16 15 15 14 13 13 12 12 13 13 13 13 12 11 11 11 12
9 12 11 7 5 5 2 3 2 1 3 2 1 5 2 2 3 3 4 3 1 2 3 2 4 5 5 6 6 7 9 10 13 14 17 20 21 21 21 22 22 20 19 20 20 19 19 19 21 21 21 22 24 23 21 17 17 19 20 19 19 21 21 20 18 16 18 17 14 14 14 17 19 18 18 17 15 12 12 16 17 16 16 14 14 13 13 13 14 14 14 14 13 13 12 12 13
7 6 8 6 4 5 3 2 0 3 2 1 1 3 3 6 6 3 4 1 1 2 3 3 5 5 4 5 5 6 8 9 12 15 18 20 19 19 20 20 20 19 19 18 18 19 20 19 20 20 21 22 22 22 24 21 18 18 21 22 21 21 21 23 23 21 21 20 19 18 16 17 20 20 19 19 18 13 12 17 18 17 17 16 15 14 13 14 14 15 15 15 14 14 14 14 14
4 1 3 5 5 3 3 2 2 1 2 2 2 3 4 7 6 3 4 1 0 2 4 4 4 4 4 4 5 6 8 10 13 16 17 17 17 18 19 18 18 18 16 16 18 20 20 19 19 20 20 22 21 20 22 24 23 21 21 22 21 22 22 23 24 23 22 22 21 20 20 20 21 21 21 20 20 17 16 18 18 18 18 17 16 15 15 15 15 16 16 16 16 16 16 17 16
4 3 1 3 5 4 3 3 2 2 2 2 3 4 2 4 3 3 2 0 2 4 4 4 4 4 4 4 5 7 8 12 15 16 16 16 16 16 17 18 18 18 17 16 19 20 19 19 18 19 21 22 22 21 20 22 24 24 23 22 21 22 23 23 24 22 21 22 22 21 21 21 21 21 22 22 22 21 21 20 19 19 19 18 18 18 18 17 16 17 17 18 19 19 19 19 19
2 4 3 2 3 3 3 3 2 1 1 1 2 4 4 2 3 4 2 1 3 5 4 3 4 5 5 5 6 7 7 11 14 16 17 17 17 17 18 19 19 20 20 19 18 18 19 20 19 19 20 22 23 23 22 20 21 24 25 25 23 22 23 24 24 24 23 22 23 23 22 21 21 22 22 22 24 24 24 23 21 21 20 20 20 20 19 20 20 21 21 21 21 21 22 22 22
0 2 3 3 3 4 3 2 2 2 1 1 2 3 2 0 2 3 1 1 3 3 5 4 5 5 5 5 5 6 6 8 11 16 19 19 21 23 23 22 22 23 23 20 19 19 20 20 20 20 19 19 20 21 21 20 20 21 23 24 25 25 26 26 25 25 27 27 27 26 24 23 23 24 24 23 23 24 25 25 23 22 22 22 22 22 22 22 23 24 23 23 23 22 23 24 24
3 1 1 1 3 4 3 3 1 3 1 3 1 3 5 1 2 3 2 1 0 3 5 6 5 4 4 4 4 6 6 7 10 14 19 23 27 29 28 26 26 25 25 24 22 20 20 19 20 21 20 19 19 20 20 20 20 20 21 22 23 24 25 26 25 24 26 29 30 28 27 26 25 26 27 26 24 24 26 27 26 25 24 25 25 25 25 25 25 25 24 25 25 24 22 23 25
8 5 3 2 2 3 2 3 2 0 2 4 2 4 10 7 5 5 4 2 3 6 5 5 5 5 4 4 5 6 6 9 10 11 15 21 26 29 30 29 29 28 28 29 27 23 20 19 19 20 21 21 20 20 19 18 19 20 21 22 24 26 26 25 25 25 27 29 29 29 29 30 29 28 28 28 27 28 29 29 29 28 27 28 29 28 27 27 27 28 27 27 28 27 24 24 25
9 7 4 5 5 3 1 2 2 0 3 6 6 7 10 10 9 8 4 3 4 7 6 6 6 5 5 5 6 6 7 9 8 10 14 17 21 24 26 28 30 31 31 31 29 26 23 20 19 20 20 21 20 20 20 19 20 20 20 22 26 29 30 29 28 28 29 29 29 28 28 32 32 28 26 27 28 31 31 30 31 32 31 30 31 31 31 31 30 30 30 30 29 28 27 26 25
8 6 3 4 4 3 1 2 3 1 3 6 6 7 10 10 10 11 5 3 5 9 8 8 7 6 6 6 7 7 8 7 4 8 12 13 16 18 19 22 24 27 30 31 30 30 30 25 22 22 21 20 21 22 20 21 23 23 21 22 23 24 24 25 27 29 31 32 31 29 29 33 33 28 25 25 27 30 31 32 34 35 33 32 33 33 34 33 31 31 30 30 30 28 28 27 25
7 6 5 3 2 2 2 1 3 1 3 2 1 5 11 12 11 11 7 5 8 10 10 9 8 7 5 6 8 7 6 4 2 6 8 9 12 12 14 16 19 22 26 29 31 31 31 28 26 24 21 20 22 22 21 21 23 24 23 23 22 21 20 20 22 23 23 24 25 26 28 31 31 29 28 29 29 30 31 34 36 36 35 35 34 34 35 34 33 32 30 29 29 28 28 28 27
5 3 5 4 2 3 3 1 2 1 2 1 1 4 10 11 10 11 9 9 9 8 7 7 6 6 6 6 7 6 5 4 4 6 6 8 10 11 13 16 18 21 22 24 27 27 26 27 29 27 22 21 20 21 23 22 21 21 22 22 20 20 21 22 23 21 21 21 22 25 27 28 29 31 34 35 34 33 32 34 36 36 36 35 35 35 35 35 34 32 32 31 29 28 28 29 30
2 2 4 3 3 3 2 4 3 1 1 1 0 4 8 8 8 9 7 6 6 5 6 7 6 7 8 7 5 4 7 6 5 7 7 7 9 11 14 17 19 20 21 22 24 24 24 27 29 27 24 22 19 21 24 22 19 20 21 20 19 19 20 20 21 24 27 29 28 30 32 33 33 32 33 36 37 35 33 35 36 37 35 34 36 36 35 36 35 33 34 34 32 30 29 31 32
0 2 3 2 5 3 1 5 5 1 1 1 2 5 6 4 5 6 2 1 4 4 5 6 6 7 8 7 6 6 8 8 7 8 7 6 8 10 12 15 16 18 21 23 23 23 24 25 27 26 26 23 20 20 21 20 20 21 21 21 21 22 22 20 19 22 25 27 26 26 28 28 27 26 27 30 33 31 31 35 37 36 33 32 35 36 37 37 36 35 35 35 36 35 32 30 30
2 4 3 1 6 6 4 7 6 3 3 1 2 5 3 0 4 5 0 1 4 2 3 5 4 4 5 5 5 5 7 7 7 8 7 6 7 9 11 14 15 16 18 20 21 21 22 23 24 25 25 24 22 19 17 18 20 22 21 22 23 23 23 22 24 25 24 24 25 24 22 22 21 22 25 27 28 28 30 35 36 34 31 31 32 34 37 38 38 37 36 37 38 39 35 30 29
3 2 2 2 6 8 8 8 4 2 2 2 1 4 3 1 3 2 1 4 6 3 4 4 2 2 2 3 3 3 4 5 5 7 7 6 7 8 9 11 13 14 15 16 17 17 18 19 20 21 22 24 24 19 16 17 18 20 21 22 22 21 20 21 22 23 21 21 22 24 26 28 26 26 28 28 28 27 30 32 32 32 32 31 31 33 36 39 40 39 37 38 38 38 36 31 30
3 0 2 6 8 8 8 6 2 0 1 1 1 2 3 4 2 0 2 5 7 5 3 1 1 1 1 2 2 3 3 3 3 5 4 4 5 5 5 6 8 10 11 12 13 13 14 16 17 18 19 21 22 18 15 17 17 18 19 20 21 20 20 18 17 18 18 18 20 23 27 29 29 28 29 28 27 27 29 31 33 34 34 33 32 34 37 39 40 39 37 37 37 37 37 35 34
1 0 2 5 6 6 5 3 2 2 1 3 1 3 4 5 2 1 3 3 6 5 2 1 1 1 2 2 3 3 3 3 3 3 3 2 2 3 3 3 4 5 7 9 11 11 11 13 14 15 16 18 19 15 14 16 16 16 16 18 19 20 20 18 16 16 17 17 19 20 23 26 28 28 29 29 28 28 30 32 34 35 35 34 33 34 36 37 38 38 37 37 37 38 39 39 38
3 5 5 5 5 5 3 2 3 2 3 4 2 2 4 4 2 1 1 2 5 3 2 1 1 1 1 2 3 3 3 3 2 2 2 2 1 0 1 3 3 4 5 7 9 10 11 11 12 13 14 15 15 14 14 15 15 16 16 17 18 18 18 18 18 18 17 16 18 19 22 25 26 27 27 28 28 29 30 29 30 32 32 31 31 33 34 35 35 36 37 37 38 39 40 42 41
8 7 7 8 4 3 3 2 2 2 3 2 2 2 3 3 2 2 2 1 2 1 3 2 1 2 1 1 2 3 3 3 2 1 1 1 2 4 6 6 6 6 8 9 10 10 11 11 12 12 13 14 13 13 14 15 14 15 15 15 16 16 15 15 19 22 21 21 22 22 22 25 26 26 26 26 27 28 30 30 29 29 29 28 30 31 32 33 34 36 36 37 37 38 40 42 43
5 4 6 6 3 1 2 2 0 4 4 2 2 3 3 4 3 1 1 2 2 1 3 4 3 2 2 1 1 2 3 3 2 2 1 2 3 5 6 7 8 9 9 10 10 10 10 10 11 11 11 12 12 12 13 14 14 14 15 14 14 15 14 14 16 19 21 23 25 24 23 24 26 26 25 26 27 27 28 30 31 32 31 29 29 30 31 32 33 34 35 35 36 37 39 41 42
1 4 7 6 3 2 3 2 2 4 2 2 1 2 3 6 5 5 5 4 4 4 2 1 0 1 1 1 2 3 3 3 2 2 1 2 3 4 5 6 9 10 11 11 11 11 11 10 10 9 9 9 10 10 11 13 14 14 15 15 14 14 14 14 15 15 16 18 21 21 21 22 24 26 27 27 27 27 28 29 30 31 33 33 32 32 31 31 29 30 31 33 35 36 38 40 42
5 7 7 5 5 4 5 3 1 3 0 1 1 1 3 4 5 8 9 3 3 3 3 3 3 4 4 4 4 4 3 2 2 2 1 1 2 2 4 7 9 11 12 12 12 11 11 10 9 8 7 7 7 8 9 10 11 13 14 15 16 15 14 14 15 15 14 15 16 17 17 17 18 20 24 25 25 25 26 27 27 28 30 32 33 32 30 29 28 28 29 31 33 35 36 38 41
3 1 1 4 4 3 4 3 1 2 2 2 1 2 3 2 1 3 5 1 0 2 3 3 4 4 4 5 4 3 1 1 1 2 1 1 1 1 4 8 10 12 13 13 13 12 11 11 10 8 7 6 5 5 6 6 7 9 11 12 14 15 15 14 14 14 14 14 14 14 15 15 14 16 20 24 24 24 25 25 25 26 27 28 30 31 31 30 29 29 29 31 32 33 34 35 37
1 2 1 2 1 2 2 1 1 1 1 2 2 3 3 2 3 4 2 2 3 3 2 3 4 2 2 3 2 1 1 1 1 1 1 1 1 3 6 9 10 12 13 13 13 13 12 11 10 9 7 6 5 4 3 4 5 6 8 9 11 13 15 15 16 16 15 15 14 15 15 15 17 21 23 24 23 23 24 24 24 24 24 25 27 28 29 30 30 30 31 31 32 32 32 34 35
2 2 3 2 1 4 4 1 1 0 3 2 2 3 3 2 6 3 2 2 3 3 3 3 2 1 1 2 1 2 1 1 1 1 0 1 2 5 8 10 11 11 12 12 12 12 12 11 10 9 7 6 5 4 3 3 4 5 7 8 9 11 13 15 16 17 17 15 15 17 16 15 19 23 23 23 23 23 23 23 24 24 23 23 24 25 26 27 27 28 31 32 33 32 32 34 34
2 3 5 3 1 1 2 1 1 0 3 1 1 4 3 2 3 1 1 3 4 4 3 2 2 1 2 2 1 2 1 1 1 0 1 1 2 5 8 10 11 11 12 13 13 12 12 11 11 9 8 6 5 4 4 4 4 5 6 7 9 11 12 14 15 16 16 15 15 17 17 17 20 22 22 22 22 23 23 23 23 24 24 24 23 23 23 23 23 22 24 28 32 32 32 34 34
1 1 3 2 2 2 1 2 2 2 3 2 2 2 3 5 4 2 1 5 5 4 3 2 3 4 4 2 2 3 2 2 2 2 2 2 3 5 8 9 10 11 12 12 13 12 12 11 10 9 7 6 5 3 3 3 3 4 5 6 8 10 11 12 13 14 16 16 16 17 18 18 20 21 22 22 22 23 23 23 23 24 25 24 24 23 20 19 22 21 20 23 26 27 29 31 31
2 1 2 1 1 2 2 2 1 2 3 1 1 1 2 5 5 5 4 3 1 3 3 3 4 4 3 2 3 3 3 3 4 3 3 3 4 5 8 9 10 11 12 12 12 12 11 10 9 8 6 5 4 3 2 0 1 2 3 4 6 8 9 11 12 13 15 16 17 17 18 18 18 19 21 21 22 22 23 23 24 24 25 25 26 25 20 19 23 24 23 23 23 23 24 26 27
3 4 5 3 1 1 1 1 2 1 3 2 2 2 2 2 3 6 5 2 2 1 2 3 2 2 1 1 3 4 4 4 4 3 2 2 3 6 8 9 10 11 11 12 11 10 10 9 8 7 6 5 5 4 4 4 4 4 4 4 4 5 7 8 10 11 13 14 15 15 16 17 17 18 20 20 21 21 22 23 24 25 26 26 26 24 20 19 22 24 25 25 23 20 21 25 27
2 3 6 6 4 3 3 3 1 1 1 1 1 2 2 1 1 4 3 1 1 1 2 2 1 1 2 2 3 4 4 4 3 2 1 1 3 6 8 10 11 11 11 11 10 9 9 8 7 6 5 4 4 4 5 5 5 5 5 5 5 5 6 7 8 9 10 11 12 13 14 15 16 17 18 19 20 20 21 22 22 23 24 23 22 21 19 18 20 22 25 27 26 24 25 30 32
Wind_Direction
1 195 188 193 195 230 318 293 211 93 268 122 116 169 140 102 46 163 158 151 155 147 144 114 145 139 115 3 47 31 359 341 4 343 77 91 137 145 143 137 142 142 143 144 146 144 139 142 136 128 123 113 102 92 91 96 99 97 99 99 100 94 93 102 98 96 97 91 93 97 98 95 93 93 92 91 89 90 91 87 87 85 86 88 86 85 86 86 86 86 86 86 86 87 86 86 90
358 192 187 192 221 251 210 297 259 135 216 150 149 180 112 138 181 181 165 154 110 114 133 138 146 136 48 16 42 166 71 28 12 35 74 125 139 145 149 143 146 144 144 145 146 146 144 145 138 130 123 113 103 99 96 100 104 105 103 100 99 95 99 105 98 104 105 95 94 99 100 98 97 97 94 94 92 90 91 90 90 90 88 86 85 86 88 89 89 89 88 89 88 88 88 87 88
289 169 175 184 179 260 132 229 251 169 213 154 148 134 129 173 186 169 143 108 79 112 128 126 146 145 210 181 172 251 95 62 74 91 107 141 145 153 152 146 148 145 147 148 147 148 147 147 141 132 125 117 110 107 101 104 109 110 108 102 100 96 102 100 92 105 109 102 99 101 101 101 101 99 96 96 94 92 92 90 87 86 86 84 84 86 87 89 89 90 90 90 90 90 91 90 90
279 200 208 241 216 192 180 209 266 219 208 143 140 146 175 189 168 135 100 92 105 130 138 146 154 109 292 244 91 330 97 90 134 117 132 153 150 151 151 149 149 146 150 151 149 148 148 150 142 135 131 122 119 114 104 105 108 112 110 107 105 98 100 96 94 104 107 106 103 104 104 104 102 99 100 99 97 96 93 90 85 83 85 85 86 88 88 88 90 91 91 90 91 91 91 92 92
46 252 231 248 241 121 93 140 140 237 200 128 135 150 186 184 148 126 111 123 124 140 146 171 164 81 293 8 10 277 103 99 146 154 149 156 148 149 152 150 150 149 151 151 151 148 149 151 145 141 137 128 125 117 108 105 107 114 114 114 111 104 106 105 103 103 105 105 102 106 106 106 105 102 103 99 98 99 97 95 94 90 88 88 89 93 92 90 93 93 93 93 92 92 92 93 94
85 52 150 180 84 35 191 177 190 211 52 9 33 140 176 170 142 131 130 135 128 319 154 189 155 128 169 93 346 358 71 108 146 164 162 159 154 153 153 152 153 152 152 153 154 151 152 153 149 148 142 135 129 119 112 109 111 115 116 119 115 106 106 107 104 101 105 104 100 106 109 109 108 105 103 99 98 98 96 97 97 93 90 90 92 94 93 91 91 92 93 94 94 94 96 97 98
194 48 72 105 104 299 222 197 217 191 68 10 0 113 159 153 142 137 145 155 156 183 188 206 154 159 134 106 176 69 18 150 138 162 167 161 157 156 155 155 155 154 154 156 156 154 158 157 155 152 145 142 134 126 120 115 115 116 118 118 115 109 105 103 101 102 103 99 98 104 110 112 110 106 104 101 100 97 94 93 92 90 90 91 93 93 92 91 91 91 92 93 95 98 100 100 100
250 282 286 176 130 336 228 194 258 289 62 12 329 18 139 146 153 151 157 165 161 162 165 170 197 211 113 98 184 96 133 161 144 162 163 161 160 159 158 159 157 157 156 156 158 157 161 161 159 156 149 148 142 134 129 123 119 121 123 120 119 118 114 106 96 99 98 98 102 103 111 115 112 110 105 102 102 101 99 93 90 90 91 93 94 94 93 93 92 92 91 93 95 98 99 99 100
0 348 241 199 150 140 158 193 134 27 72 32 260 282 31 159 170 161 160 157 133 158 154 147 189 224 134 153 107 106 160 158 154 159 162 164 163 162 161 164 162 159 158 158 160 159 164 164 162 159 154 154 147 140 136 131 125 126 130 126 127 129 124 113 102 103 105 111 112 107 115 119 115 113 107 104 104 104 102 99 96 93 94 96 96 95 95 94 93 93 92 94 95 98 99 101 104
354 4 216 156 172 190 177 188 147 132 140 12 288 225 176 174 191 171 161 146 137 156 135 122 183 186 142 147 106 111 159 160 157 158 165 167 165 166 163 167 167 163 162 162 162 162 168 169 165 162 160 158 152 146 141 138 131 130 133 131 133 134 127 120 119 119 115 117 118 113 117 121 119 117 112 109 108 106 105 103 100 98 99 98 97 96 96 95 95 94 93 96 98 102 104 107 111
232 77 247 179 188 200 189 175 150 137 116 306 237 183 167 174 185 167 154 128 147 155 138 174 182 156 148 134 109 102 138 162 159 160 168 170 167 168 166 168 171 170 168 166 165 166 170 171 169 167 167 162 159 153 146 144 137 133 133 133 136 137 131 127 128 128 121 118 122 119 119 123 123 121 116 112 113 111 108 106 104 103 103 101 100 99 98 98 97 96 95 98 99 105 110 116 118
225 127 215 198 186 210 182 158 147 130 131 198 174 150 156 172 180 173 173 149 161 165 161 196 173 147 153 131 120 114 145 166 163 167 169 171 170 169 170 169 171 174 176 172 168 170 171 172 172 171 173 167 165 160 152 152 144 138 134 133 139 142 139 136 134 130 129 127 129 126 124 126 126 126 120 118 122 117 109 109 109 109 106 103 103 100 99 99 99 99 100 101 102 107 111 116 121
232 161 203 178 94 1 127 149 137 129 170 180 153 137 155 174 190 184 174 151 164 172 163 176 162 194 157 110 115 134 162 169 168 172 169 172 172 171 171 169 173 176 179 177 173 175 173 175 175 175 177 172 170 168 162 162 155 148 140 136 143 150 148 145 144 139 136 138 140 137 134 131 133 134 130 127 127 125 117 115 116 115 111 106 105 103 101 102 102 103 104 105 107 110 113 118 123
225 191 225 142 75 152 152 124 152 191 169 139 119 134 166 184 208 186 176 177 172 167 90 141 212 241 155 130 148 162 166 166 170 170 168 172 171 172 171 170 175 176 179 179 180 179 177 179 178 179 181 176 176 173 171 172 166 158 150 143 144 153 155 153 152 149 145 148 153 150 142 136 139 140 140 139 134 135 129 125 127 120 113 113 112 108 107 107 107 108 110 113 115 117 120 124 127
187 148 56 122 138 166 187 322 155 207 161 133 135 147 168 176 10 188 203 211 149 63 40 165 273 293 187 173 151 153 157 160 167 165 166 171 170 173 170 172 176 178 181 181 184 183 183 184 182 184 182 181 181 178 178 180 176 168 161 154 149 154 159 160 157 155 152 157 163 159 144 129 140 147 148 150 149 144 134 129 131 125 122 127 124 114 113 113 113 114 114 119 121 123 127 130 133
220 149 104 135 163 196 193 183 159 204 151 130 129 161 169 146 215 201 300 315 113 98 235 176 200 318 317 127 94 120 144 156 164 162 165 167 169 173 171 175 177 181 184 184 187 186 187 188 188 189 184 185 186 183 182 183 183 177 171 168 163 161 162 163 158 158 156 162 167 161 146 120 138 153 154 157 161 156 138 128 131 133 136 139 133 121 120 120 119 118 116 120 122 126 131 135 140
244 189 166 162 179 206 182 174 177 164 129 131 147 185 179 152 178 236 67 287 130 133 233 89 118 302 350 66 95 122 139 155 162 160 165 166 170 175 178 180 180 186 187 188 191 188 190 191 191 191 189 190 189 188 185 185 187 182 180 180 178 176 170 167 163 164 163 168 172 165 157 134 138 153 159 163 167 165 149 138 142 146 147 146 142 131 130 129 125 123 120 123 128 134 136 140 146
222 183 177 185 174 188 181 174 173 112 143 156 172 192 189 165 158 161 165 184 124 154 205 198 177 220 17 65 125 143 146 157 164 165 168 170 174 178 183 185 185 189 189 191 193 191 192 194 194 192 192 194 193 191 189 192 191 184 187 186 185 189 181 175 173 173 175 175 179 177 168 156 147 153 165 168 167 167 160 158 159 160 160 156 150 141 136 136 134 128 128 136 142 146 146 146 150
171 135 189 200 171 133 175 166 150 75 142 148 163 193 202 173 152 167 195 172 160 198 200 206 220 194 175 167 150 150 152 164 170 173 174 177 181 183 187 188 188 191 193 194 194 194 194 196 195 194 196 197 196 193 192 198 194 186 190 189 187 191 189 188 186 181 182 183 184 181 176 173 161 160 173 176 175 171 171 176 174 171 172 168 163 159 149 143 142 135 138 151 155 158 158 154 153
139 193 204 168 146 106 32 177 141 98 132 145 152 172 198 148 134 172 201 165 185 218 205 198 221 207 179 157 156 158 160 172 178 180 182 185 187 189 191 191 192 193 194 195 195 197 196 196 197 198 200 199 199 197 196 200 197 191 192 194 190 190 189 191 194 192 189 187 185 182 184 186 173 170 179 181 183 177 178 186 184 180 178 180 177 172 169 156 147 145 151 164 167 172 176 171 164
149 206 226 111 137 142 136 199 125 120 198 153 139 148 170 135 140 181 179 181 209 228 224 216 225 208 173 152 160 166 167 178 185 189 190 191 193 195 197 196 197 195 194 195 196 198 197 197 198 201 203 203 203 202 202 201 199 197 195 198 195 191 190 189 196 199 197 192 188 188 192 192 180 178 178 178 181 177 179 184 184 181 178 188 184 170 177 163 153 159 167 178 180 183 188 187 180
143 126 359 74 170 144 124 161 133 142 176 149 142 152 153 130 162 189 196 215 221 226 246 249 263 225 161 155 161 168 175 183 189 196 197 196 197 198 200 201 200 199 198 197 199 200 199 198 198 201 204 205 207 206 206 206 205 203 201 202 199 195 192 189 195 199 202 199 195 195 196 193 187 185 183 183 184 182 183 182 182 184 182 192 189 188 196 172 164 173 180 186 191 189 193 196 192
169 144 52 76 317 66 117 140 156 183 163 155 152 143 130 149 177 150 218 231 60 62 17 338 326 4 134 146 157 171 181 188 193 198 199 199 199 200 201 201 202 201 202 201 203 203 201 201 203 205 205 206 209 208 208 209 211 208 208 210 204 198 195 194 195 197 204 204 202 201 199 197 194 192 191 191 191 190 191 191 192 193 190 198 202 207 206 184 174 182 191 195 199 199 200 201 200
194 136 134 112 355 29 59 130 152 218 167 137 132 133 145 179 174 98 233 236 136 82 20 8 10 99 136 150 166 178 186 192 197 200 202 203 202 203 204 205 206 205 206 205 206 207 205 204 208 210 208 207 209 210 211 211 213 212 216 221 217 207 201 201 200 197 204 207 207 205 203 203 199 198 197 196 197 198 203 206 207 207 206 213 217 214 205 193 188 192 199 202 206 208 208 207 205
176 133 142 137 46 60 54 116 136 157 118 103 143 149 149 174 137 159 233 227 176 352 20 60 96 125 168 176 178 182 189 197 201 202 205 208 207 207 209 210 210 209 210 209 208 211 210 208 210 214 214 211 208 209 213 213 214 213 216 224 227 224 213 206 208 202 201 207 210 209 208 207 204 204 203 200 200 204 213 216 216 217 219 223 223 217 206 199 200 202 206 209 212 214 213 212 209
121 123 135 132 103 85 88 97 104 126 106 154 167 136 95 114 102 245 222 113 13 321 59 117 136 164 194 193 188 187 192 198 200 202 206 209 209 211 212 212 212 212 211 210 210 212 213 212 212 214 217 218 214 208 210 215 217 215 216 220 225 230 225 212 212 209 205 205 210 213 212 212 211 209 210 209 207 209 216 219 221 224 226 227 224 220 211 205 208 212 215 217 218 218 217 217 211
106 115 109 105 109 96 55 106 92 127 94 294 179 132 95 132 238 241 135 52 343 239 169 150 195 199 199 197 196 193 198 200 197 200 204 208 212 214 213 212 213 213 211 210 211 212 213 215 214 214 216 219 221 216 212 213 218 219 218 219 221 227 227 219 217 215 216 214 210 212 213 216 216 213 216 219 217 216 220 220 223 227 229 231 226 223 217 211 214 218 221 222 223 224 224 222 214
120 126 103 86 107 97 53 110 104 294 103 337 197 128 97 125 230 216 104 49 334 201 188 183 220 218 203 199 198 199 207 203 196 201 205 207 210 213 213 212 212 211 211 211 210 211 213 215 216 216 215 218 223 223 222 217 217 220 219 221 223 224 224 224 226 226 226 225 221 218 215 219 220 220 223 227 225 218 222 225 227 230 232 234 231 228 223 218 221 224 228 229 229 231 231 229 221
129 137 114 109 135 105 42 83 343 304 128 339 293 155 192 195 214 153 94 2 68 178 202 192 219 226 214 206 206 209 208 198 198 207 211 211 210 212 214 213 210 209 212 212 209 211 213 214 216 217 216 218 221 222 225 223 220 221 221 223 225 227 227 227 230 232 233 233 231 229 226 226 226 227 228 230 231 225 227 231 231 233 234 235 233 231 228 224 226 228 231 232 233 235 234 233 228
137 150 126 136 174 148 33 2 298 284 129 324 259 222 210 196 212 115 84 324 163 198 201 198 219 220 224 217 218 219 209 204 208 214 215 214 213 214 217 215 211 210 211 209 209 210 211 212 214 217 217 216 220 220 223 226 225 225 224 224 224 227 229 229 231 232 233 235 237 235 232 232 231 232 233 233 234 233 235 238 236 236 237 236 233 231 229 228 232 234 234 234 234 235 234 234 228
134 145 176 157 192 172 71 22 312 187 145 324 243 240 233 165 173 97 64 303 207 230 198 189 213 226 236 225 231 231 217 214 218 222 219 217 217 217 219 217 213 212 211 210 210 209 209 211 211 214 215 215 219 219 219 223 226 228 229 230 227 226 231 235 236 234 233 236 240 242 239 238 235 235 237 237 238 237 238 242 241 240 240 239 235 232 227 226 231 235 236 235 235 234 234 235 228
101 160 175 181 213 170 95 59 345 194 136 344 233 242 254 188 137 108 63 129 181 231 220 200 215 226 236 231 238 239 229 225 228 231 228 224 223 222 223 220 216 215 215 214 211 209 209 211 212 214 217 217 219 222 224 223 225 228 231 234 231 229 233 238 240 238 236 239 244 246 245 245 243 242 241 239 240 240 240 243 244 244 243 241 237 235 232 228 229 230 232 233 232 233 233 232 228
196 231 161 159 199 176 143 111 11 347 122 229 246 267 267 81 111 127 107 115 141 231 240 239 232 225 230 231 238 241 242 233 231 234 231 229 229 229 229 225 224 222 221 219 214 212 212 212 213 216 219 220 222 227 229 227 226 228 229 232 234 235 237 238 241 240 238 240 242 241 244 249 247 245 245 242 242 243 243 244 245 246 244 241 238 237 235 232 232 231 232 232 231 231 230 229 228
171 276 115 150 195 179 176 144 67 353 238 217 215 270 253 184 129 176 194 211 280 261 249 243 236 226 220 224 237 239 243 240 235 232 229 232 234 236 235 233 232 229 228 226 221 217 216 215 214 217 220 220 221 224 226 225 225 228 228 230 233 236 237 237 238 238 238 240 238 237 243 248 246 243 243 241 240 242 243 242 242 244 242 239 237 237 236 233 235 235 233 233 231 229 229 229 230
176 180 161 154 205 216 211 145 126 7 209 224 199 245 254 247 241 233 200 192 271 268 261 257 247 243 235 232 240 237 238 242 240 233 231 236 238 240 240 238 238 236 235 234 229 223 219 217 217 219 221 220 221 222 224 225 225 230 231 231 234 236 237 237 237 237 238 238 236 238 243 243 242 244 243 240 238 239 239 238 239 240 239 237 234 232 233 232 234 234 232 233 232 231 231 232 233
174 169 155 151 169 208 228 95 70 218 198 218 218 232 255 256 257 258 212 157 257 270 267 264 251 246 242 236 239 236 238 242 242 242 243 242 241 242 242 241 242 240 240 239 235 228 222 219 218 221 221 219 221 222 223 223 222 226 230 232 234 234 235 235 235 236 236 234 233 238 245 243 241 242 242 242 243 244 243 239 238 240 239 236 233 231 231 232 234 233 232 232 233 232 232 233 235
148 147 142 151 170 166 115 95 60 0 222 217 224 247 263 262 262 265 248 173 247 261 255 252 246 238 230 228 234 231 235 243 252 256 252 246 245 244 242 242 242 241 241 240 237 234 230 223 219 221 220 217 219 220 220 221 221 222 223 225 227 228 230 232 233 234 233 232 232 236 243 243 239 235 238 243 245 247 246 240 239 240 239 238 236 234 234 234 234 234 232 231 231 231 231 234 234
137 159 160 163 203 140 96 106 81 44 241 206 175 257 259 256 258 261 252 228 240 242 239 243 241 236 229 228 236 234 237 248 257 256 250 245 247 244 241 240 238 237 239 238 236 235 233 227 223 224 220 216 219 219 219 221 222 223 223 224 227 229 231 232 231 229 227 227 231 237 239 235 232 232 239 245 243 243 245 240 239 239 239 239 237 235 235 235 236 234 231 230 230 230 232 234 231
133 149 162 171 173 127 110 137 101 72 249 212 126 254 261 256 255 254 243 238 240 238 243 253 249 241 238 232 236 243 252 253 244 248 245 244 250 247 242 240 238 237 237 238 237 234 230 228 228 227 221 219 222 222 220 221 222 224 227 230 233 235 237 238 236 234 233 235 240 247 244 238 238 242 245 246 241 240 244 243 240 240 241 241 238 235 235 235 235 234 233 232 230 228 230 234 232
128 137 167 167 152 161 180 164 139 67 336 328 267 265 272 258 250 247 235 242 261 267 263 264 262 252 250 252 260 267 266 265 256 253 249 243 249 247 242 241 242 241 238 238 237 232 228 229 230 227 224 221 223 225 224 223 223 225 228 230 233 235 237 239 238 238 239 242 246 247 244 241 244 247 246 243 240 240 246 246 242 242 244 244 240 235 232 234 234 235 235 233 229 224 224 229 230
15 204 181 142 165 193 12 124 137 132 151 11 313 268 266 247 242 240 208 247 262 265 259 250 245 245 254 270 275 257 255 263 264 261 256 245 245 246 245 245 245 245 242 240 238 235 232 232 231 229 227 223 222 226 226 223 223 225 226 228 231 233 236 236 235 234 233 235 238 236 236 236 237 242 242 241 240 242 249 248 241 240 244 246 242 237 235 236 237 238 237 234 230 226 222 225 227
202 227 215 198 173 152 102 128 145 183 187 78 337 262 250 154 246 237 133 320 249 221 244 247 236 236 250 264 264 245 242 253 256 260 262 254 250 250 250 249 247 246 245 243 240 238 236 234 233 232 231 227 223 223 222 218 219 222 223 225 226 228 233 236 234 234 234 235 236 233 234 235 236 242 245 245 246 248 252 248 239 239 245 246 244 242 239 237 236 238 238 236 233 231 226 224 225
188 209 173 154 150 132 134 153 165 203 190 78 342 258 255 303 257 221 17 305 275 245 234 250 251 245 256 263 274 264 254 254 248 255 260 257 253 250 253 249 244 245 245 244 240 237 235 234 233 233 231 229 225 221 215 213 215 218 220 222 223 223 228 233 233 235 237 240 243 241 240 241 242 246 248 251 253 252 251 247 241 242 245 245 245 243 239 237 237 239 241 241 238 234 228 223 225
177 161 138 144 140 137 146 154 161 27 77 132 63 317 278 275 266 39 350 287 273 254 216 216 246 244 304 300 309 306 289 284 267 261 256 252 251 245 254 250 238 240 241 236 232 229 228 227 227 227 225 226 226 220 211 209 211 214 218 222 225 226 229 234 237 238 238 240 244 245 244 244 245 245 247 251 254 251 249 247 246 245 244 243 244 244 241 239 239 240 244 244 239 235 229 225 228
136 132 142 135 122 122 136 133 110 58 268 208 101 23 268 254 244 18 347 284 261 247 176 117 87 55 9 6 3 348 331 315 287 280 276 272 274 258 255 240 217 223 222 218 216 215 216 215 217 218 219 223 223 216 209 209 211 212 215 219 224 227 231 234 237 238 239 241 242 244 246 247 246 246 247 250 252 252 250 247 245 243 240 240 242 245 244 240 238 241 244 243 240 237 233 229 230
137 150 114 93 84 82 88 94 108 104 252 221 103 15 264 258 247 187 27 279 255 243 117 71 34 42 346 11 14 357 355 349 323 301 300 316 333 277 147 131 138 156 164 176 185 192 196 198 202 206 210 216 216 214 212 210 212 213 215 218 222 227 232 235 238 240 241 242 243 245 247 248 249 249 248 248 249 250 250 248 244 240 239 243 249 251 247 243 242 244 246 246 244 240 235 232 231
140 152 111 93 76 60 67 43 81 186 241 210 69 348 278 268 262 204 191 240 263 183 117 132 133 97 93 69 16 359 4 356 350 354 9 47 73 95 104 109 115 125 135 144 156 165 174 181 186 193 200 207 210 212 214 213 212 214 218 221 225 230 234 238 241 242 243 245 247 249 249 251 252 252 251 250 249 248 248 249 248 245 244 247 251 250 247 247 248 248 247 246 245 241 237 235 236
141 164 130 111 80 75 114 66 114 223 226 114 46 321 259 240 245 180 222 239 247 212 131 129 122 96 91 89 19 359 355 340 340 6 70 99 102 97 96 104 114 121 125 131 140 146 155 164 172 181 189 195 201 206 211 215 216 218 222 225 230 235 237 241 244 245 246 248 251 252 252 253 255 255 254 252 250 249 248 248 249 249 249 249 249 249 250 251 249 248 247 245 243 241 238 238 239
202 160 150 144 127 155 192 179 203 232 231 71 3 292 241 242 258 269 261 231 205 220 210 172 233 306 317 350 357 355 348 329 333 351 22 88 100 95 97 109 118 124 127 130 134 136 142 149 155 166 175 180 189 197 205 214 221 226 229 232 235 238 239 242 247 250 250 251 253 253 253 255 257 257 255 253 253 253 251 250 249 249 249 250 251 252 252 251 249 248 247 245 244 243 242 241 241
184 162 163 168 149 168 197 177 237 257 204 68 297 280 247 249 262 257 251 223 146 203 235 254 268 283 296 315 320 322 330 327 332 337 340 38 70 85 105 115 121 127 129 130 130 130 131 134 138 146 154 163 174 188 201 212 222 229 234 238 242 244 247 248 250 253 254 254 254 252 253 254 255 257 258 259 260 258 256 255 253 252 250 249 249 250 251 252 253 253 251 249 249 248 246 245 243
179 162 161 179 166 184 198 177 211 219 103 96 184 236 231 200 119 250 251 299 8 224 242 266 260 263 279 289 287 293 329 20 10 330 313 330 341 104 118 119 122 125 126 126 125 125 123 124 128 132 138 146 156 175 197 211 225 233 238 244 247 249 252 254 255 256 257 257 256 255 255 254 254 257 261 265 266 263 261 260 257 255 254 253 252 252 253 253 255 255 254 253 253 251 248 248 249
156 5 52 207 186 117 117 89 134 114 80 153 187 248 256 264 288 264 224 254 256 217 207 246 250 236 252 272 254 143 42 54 39 318 283 284 250 151 140 136 133 131 130 128 126 125 124 125 126 128 130 136 143 159 184 209 230 242 248 252 255 257 258 259 260 261 262 263 262 262 262 260 262 265 266 267 267 265 264 263 261 258 255 255 256 255 255 255 255 254 253 252 252 250 249 250 250
144 159 179 187 59 101 114 121 95 10 253 195 164 253 269 291 281 265 155 208 217 178 184 207 231 245 220 251 195 103 45 40 47 313 286 170 163 151 149 145 141 138 133 130 128 125 125 124 125 127 127 130 138 156 181 207 230 243 253 258 261 263 264 265 266 267 268 268 266 268 268 267 268 270 270 269 268 265 263 262 262 261 258 255 255 255 256 256 254 253 252 252 252 252 252 252 249
146 173 163 136 86 98 121 155 116 154 245 218 163 244 264 233 250 327 85 217 205 184 197 183 171 196 199 208 95 75 37 27 48 300 237 188 149 143 143 139 134 133 130 128 127 125 125 125 126 128 130 136 145 157 183 208 229 242 253 258 261 264 267 269 271 272 273 270 270 273 273 273 276 276 274 272 271 267 264 262 261 260 259 256 253 253 253 252 251 251 251 251 251 251 251 252 251
344 169 138 125 197 195 169 179 166 181 225 247 206 244 271 218 216 308 237 214 210 183 171 178 179 183 185 169 101 85 88 100 115 140 165 151 130 130 134 131 125 125 125 126 126 124 125 124 122 123 123 128 138 144 169 200 224 236 246 252 257 261 265 270 273 276 278 276 278 280 278 278 281 280 277 276 275 273 270 268 264 261 259 257 254 252 249 248 248 249 250 250 250 249 249 252 253
40 119 140 354 287 205 184 164 170 208 204 237 244 214 240 214 213 242 224 194 193 165 163 190 186 173 171 141 119 112 115 129 133 135 138 120 116 125 129 127 121 118 118 120 120 116 113 106 98 97 92 87 84 75 80 65 286 277 271 263 261 263 264 267 271 273 276 278 280 280 279 281 282 280 279 278 276 275 274 272 269 265 262 259 257 254 249 247 249 250 252 253 253 251 249 252 255
142 166 170 171 112 40 236 127 64 261 197 196 240 240 235 212 203 226 224 93 70 157 186 202 183 157 177 137 135 137 134 142 137 128 128 114 118 122 123 123 117 109 105 105 106 101 96 91 82 76 67 59 46 29 20 4 350 342 331 316 296 284 275 272 273 275 277 280 283 284 284 285 284 283 283 280 278 276 274 273 271 269 266 263 261 258 252 251 252 253 253 253 253 250 248 254 259
167 185 184 176 149 135 186 195 131 20 247 186 227 267 260 201 174 228 235 121 137 219 242 232 221 191 189 153 146 146 143 147 135 115 113 99 118 120 118 117 110 102 97 95 94 89 85 84 82 80 71 56 37 23 12 0 357 350 341 336 326 314 302 293 290 290 291 294 295 294 293 291 289 288 286 283 283 281 277 276 273 270 268 265 263 260 257 255 254 255 255 254 253 249 250 256 259